Location: Caltech
(34.1382°N, 118.1253°W)
Time: 17:49:44
(UTC-07:00)

Saudisat 1A - Visible Passes

Search period start: 16 April 2014 00:00
Search period end: 26 April 2014 00:00
Orbit: 592 x 617 km, 64.6° (Epoch: 16 April)

Date Brightness Start Highest point End Pass type
(mag) Time Alt. Az. Time Alt. Az. Time Alt. Az.
16 Apr 8.8 20:39:07 10° N 20:43:09 34° NE 20:44:28 28° E visible
16 Apr 10.5 22:19:24 10° WNW 22:21:20 17° W 22:21:20 17° W visible
17 Apr 7.9 20:51:33 10° NNW 20:55:57 71° ENE 20:57:22 41° SE visible
18 Apr 8.5 21:04:19 10° NW 21:08:37 54° WSW 21:10:21 32° S visible
19 Apr 9.8 21:17:31 10° NW 21:21:10 26° WSW 21:23:25 17° SSW visible
20 Apr 8.3 19:50:12 10° NNW 19:54:30 51° ENE 19:58:44 10° SE visible
20 Apr 10.7 21:31:48 10° W 21:33:36 12° WSW 21:35:25 10° SW visible
21 Apr 8.2 20:02:49 10° NNW 20:07:13 77° WSW 20:11:33 10° SSE visible
22 Apr 9.5 20:15:47 10° NW 20:19:48 35° WSW 20:23:46 10° S visible
23 Apr 10.6 20:29:24 10° WNW 20:32:17 17° WSW 20:35:08 10° SSW visible
